Wind_Speed
26 26 27 29 31 32 32 33 37 36 38 38 44 46 47 50 49 52 50 48 46 47 47 50 51 51 51 52 55 58 61 64 66 68 69 69 69 73
23 27 28 29 32 33 32 36 39 43 45 43 45 51 52 49 53 48 53 49 51 50 50 53 54 54 52 53 56 59 61 65 67 69 70 70 75 71
25 27 29 31 34 36 39 38 42 46 49 48 47 49 53 54 53 53 52 49 58 53 55 58 55 55 55 57 59 60 62 66 68 68 71 69 71 71
29 31 32 34 38 39 43 44 49 49 50 51 54 44 45 44 50 49 45 53 52 60 62 57 55 57 58 60 60 62 64 72 71 67 68 75 77 78
35 36 36 40 41 42 45 45 46 47 47 46 40 45 45 48 51 53 48 43 49 60 61 61 63 61 61 62 63 64 69 65 67 72 75 79 79 81
34 37 38 38 38 39 47 47 47 50 49 49 49 50 48 46 57 57 53 53 59 61 54 69 68 67 62 63 69 76 71 71 75 78 80 81 82 86
38 40 41 43 44 47 46 49 47 49 54 54 52 54 54 53 52 57 64 62 63 64 61 81 69 60 65 71 79 72 73 78 82 82 84 84 85 86
41 42 44 46 46 49 51 54 56 50 50 49 58 53 59 61 60 56 58 65 62 60 73 71 61 65 73 77 77 79 81 83 84 83 85 86 88 90
44 44 45 46 46 49 51 55 56 56 51 59 57 57 57 60 61 66 68 68 63 73 57 58 61 73 75 78 81 84 81 83 84 87 88 89 90 90
48 48 48 49 49 51 53 54 56 57 56 58 60 62 63 63 65 65 67 65 69 63 70 63 72 77 86 89 90 89 85 84 85 89 93 91 90 87
50 53 54 55 55 54 56 58 59 61 61 61 61 63 68 67 69 65 70 69 77 82 74 72 80 88 93 93 91 86 85 87 91 93 94 91 89 90
48 51 54 55 57 62 63 63 64 65 65 67 68 68 72 71 64 70 73 71 65 67 76 81 93 93 92 90 86 88 91 94 96 99 96 93 92 92
60 58 58 59 61 60 62 65 68 68 70 71 71 72 77 67 81 75 81 82 82 85 85 88 90 93 91 89 88 91 96 97 100 99 96 95 94 93
73 65 62 64 71 68 64 65 66 67 68 71 70 72 74 77 83 83 77 78 82 86 88 86 87 88 89 90 91 94 98 100 99 97 97 97 94 90
58 68 71 74 76 78 68 66 68 67 68 68 71 69 69 71 72 77 81 86 86 87 89 91 92 94 95 95 96 99 101 100 100 100 97 95 89 83
68 70 75 75 75 77 69 67 67 69 69 70 72 69 80 81 78 80 82 84 86 88 93 96 96 96 99 102 104 100 101 101 100 98 95 89 82 73
74 74 75 79 82 82 80 72 74 77 73 72 73 75 74 73 78 81 84 87 89 92 94 97 100 103 104 102 103 103 103 102 98 97 90 81 71 62
74 76 76 78 73 71 74 74 62 64 66 64 68 72 74 78 82 86 90 92 94 96 98 102 105 102 101 102 106 107 106 102 95 86 78 71 59 52
69 69 62 57 55 57 59 62 65 68 73 77 78 83 86 89 92 93 94 98 100 101 101 102 103 105 106 105 105 105 102 93 86 75 69 61 49 42
54 55 58 59 60 60 63 66 68 69 73 77 82 85 90 94 96 98 100 101 100 99 100 103 107 111 111 108 105 96 88 84 76 65 56 46 36 33
54 55 60 66 68 68 68 70 74 77 82 85 88 89 92 94 97 98 98 100 102 104 106 106 108 107 105 101 95 86 79 74 67 55 43 34 31 27
65 67 68 71 73 75 77 79 81 83 86 88 89 91 92 93 95 97 101 103 105 105 103 102 100 96 92 89 84 76 68 61 55 43 32 29 27 23
68 70 73 74 75 77 80 81 81 83 84 85 87 90 92 96 98 101 100 99 97 95 93 91 88 86 81 77 71 63 53 45 39 26 27 28 32 31
Wind_Direction
245 244 250 256 262 265 269 274 281 278 280 281 285 287 290 289 286 284 284 290 285 284 290 293 292 292 295 300 302 300 299 300 300 300 300 302 302 303
245 247 254 258 261 264 269 273 275 280 284 282 283 287 290 290 285 283 278 279 283 279 292 292 291 292 296 299 301 301 301 300 299 299 300 302 300 300
251 251 255 260 264 269 272 269 273 280 283 283 288 290 290 287 275 281 283 273 281 277 291 292 292 295 299 301 301 301 302 300 299 299 300 302 304 300
257 260 262 265 267 270 273 271 277 282 281 284 283 293 284 284 281 280 282 282 279 284 289 293 298 299 299 299 300 302 304 302 299 304 300 300 302 305
263 266 267 268 268 271 275 274 279 281 282 288 280 286 281 289 282 281 285 280 286 288 289 292 295 295 297 299 301 301 303 308 306 303 303 303 300 302
262 264 267 270 270 276 278 279 283 283 284 283 283 283 284 283 288 283 291 292 292 293 286 294 292 292 294 297 305 309 306 303 304 303 303 305 303 303
265 267 270 272 271 274 280 278 280 292 287 284 283 283 289 276 284 282 289 296 297 283 275 299 278 288 299 303 307 306 304 304 304 304 304 304 305 304
270 271 272 273 276 278 278 278 274 287 279 286 275 284 282 283 288 288 287 295 295 291 293 280 287 289 301 304 302 302 302 302 304 303 303 304 305 304
276 275 275 276 278 280 279 280 280 282 288 285 282 279 282 287 294 289 276 300 288 284 287 279 282 298 300 299 302 303 301 303 303 303 304 305 305 304
279 280 279 279 279 279 281 281 282 282 282 286 284 285 286 288 289 287 289 292 282 288 280 280 291 297 297 300 303 302 303 303 304 305 307 307 304 304
280 281 282 282 282 282 283 282 283 283 283 284 286 282 286 286 283 282 288 285 281 283 277 273 282 292 298 299 300 301 301 303 305 306 307 305 304 304
284 284 284 287 287 283 281 281 283 284 285 285 284 285 286 286 278 285 284 286 287 282 281 280 285 292 295 298 300 299 300 302 304 306 305 304 303 302
285 286 284 285 286 282 280 281 281 282 283 283 286 289 287 274 277 278 288 287 283 284 285 289 291 292 294 295 297 298 299 302 303 304 303 303 303 303
284 278 285 286 292 281 280 279 279 281 284 286 286 281 278 276 285 283 280 277 280 285 288 288 289 291 294 297 298 299 300 301 301 302 302 303 303 302
274 284 287 290 292 284 278 278 279 281 284 282 289 284 281 280 281 281 281 283 290 291 291 294 297 298 297 298 298 299 300 301 301 301 301 301 301 300
274 281 285 288 288 283 276 276 279 278 281 280 283 272 277 286 287 287 286 286 288 291 294 296 296 296 298 298 300 301 300 300 299 300 300 300 299 299
281 283 283 285 284 286 277 274 276 277 274 269 269 272 280 284 283 285 288 292 293 293 293 294 296 296 298 299 299 299 298 299 299 299 298 297 296 294
281 283 283 283 277 279 276 276 270 278 281 281 283 284 282 283 286 290 292 293 294 294 294 294 296 298 297 298 298 298 298 298 298 297 296 296 293 288
277 276 273 270 275 274 273 278 282 285 284 283 282 284 288 292 294 293 293 294 294 294 295 296 296 295 296 297 297 298 298 296 296 295 292 291 289 279
270 265 270 276 279 281 283 283 282 282 282 281 288 288 289 290 290 291 292 293 294 294 295 296 296 296 296 297 297 297 295 294 293 292 288 283 273 262
276 276 280 282 285 286 286 285 283 282 284 286 287 288 288 289 291 293 294 294 294 294 295 296 297 297 297 296 296 296 293 289 289 288 281 271 258 247
278 281 284 287 288 287 287 286 285 286 286 288 289 291 293 294 295 294 294 295 296 297 297 298 297 296 296 296 296 294 291 287 284 279 263 247 236 209
276 278 280 281 282 283 285 287 288 289 292 294 294 295 295 295 296 297 297 297 298 298 299 299 298 298 297 296 294 292 289 282 276 258 236 220 199 194
Height
5731 5732 5733 5735 5736 5737 5737 5737 5734 5735 5736 5737 5733 5733 5731 5729 5728 5727 5724 5722 5720 5719 5716 5713 5710 5706 5702 5698 5695 5691 5687 5683 5678 5674 5669 5664 5658 5653
5724 5725 5726 5728 5728 5729 5728 5729 5727 5726 5723 5726 5724 5721 5720 5718 5716 5716 5713 5710 5709 5706 5703 5701 5697 5693 5689 5685 5680 5676 5672 5667 5662 5657 5653 5648 5642 5635
5718 5718 5719 5720 5720 5719 5720 5720 5718 5715 5712 5710 5708 5708 5705 5704 5703 5703 5699 5698 5696 5693 5691 5689 5684 5679 5674 5670 5665 5661 5657 5652 5647 5642 5637 5630 5624 5618
5710 5709 5711 5711 5711 5711 5710 5708 5706 5705 5702 5699 5697 5694 5691 5689 5688 5688 5687 5686 5683 5682 5677 5676 5670 5663 5659 5655 5651 5646 5641 5636 5631 5625 5619 5612 5606 5599
5702 5701 5702 5702 5702 5703 5700 5697 5695 5692 5689 5687 5685 5682 5681 5679 5677 5676 5675 5670 5668 5666 5661 5658 5654 5649 5644 5639 5634 5630 5624 5617 5612 5606 5600 5593 5586 5579
5693 5692 5692 5691 5692 5691 5688 5686 5684 5681 5678 5675 5674 5671 5670 5667 5663 5663 5659 5658 5654 5648 5644 5643 5639 5635 5630 5623 5618 5611 5604 5599 5593 5586 5581 5574 5566 5557
5684 5684 5683 5682 5680 5679 5675 5674 5671 5668 5665 5662 5661 5659 5656 5652 5650 5647 5644 5641 5637 5630 5628 5626 5623 5617 5613 5606 5600 5592 5586 5580 5572 5566 5559 5552 5544 5536
5674 5673 5672 5670 5670 5666 5662 5660 5659 5655 5652 5649 5649 5645 5636 5637 5639 5633 5628 5628 5625 5620 5617 5611 5602 5600 5595 5589 5582 5575 5568 5560 5551 5543 5537 5530 5523 5514
5660 5660 5659 5658 5657 5654 5651 5648 5644 5641 5639 5637 5633 5631 5628 5627 5624 5618 5614 5612 5608 5601 5597 5597 5590 5584 5578 5571 5561 5555 5547 5539 5531 5522 5515 5508 5500 5492
5648 5646 5645 5644 5644 5641 5638 5635 5631 5627 5626 5625 5620 5616 5613 5610 5607 5604 5600 5595 5589 5585 5583 5581 5573 5568 5561 5551 5541 5534 5525 5518 5510 5501 5493 5485 5475 5468
5635 5634 5632 5630 5628 5626 5623 5619 5615 5612 5609 5608 5604 5603 5597 5593 5588 5584 5583 5579 5574 5568 5561 5560 5555 5550 5543 5535 5525 5516 5507 5498 5490 5480 5471 5461 5452 5444
5624 5621 5619 5616 5613 5611 5607 5603 5599 5595 5592 5589 5587 5583 5579 5575 5569 5565 5562 5560 5554 5549 5542 5539 5535 5527 5525 5516 5505 5495 5487 5476 5468 5456 5447 5439 5430 5421
5610 5608 5606 5603 5599 5594 5590 5586 5583 5578 5576 5572 5569 5565 5560 5557 5553 5549 5545 5541 5535 5530 5521 5517 5512 5504 5497 5495 5489 5475 5464 5455 5445 5432 5420 5413 5405 5396
5590 5590 5588 5586 5582 5578 5573 5569 5565 5562 5559 5555 5551 5548 5545 5539 5534 5529 5523 5518 5513 5506 5498 5491 5489 5482 5475 5471 5465 5457 5443 5431 5420 5410 5398 5389 5378 5371
5577 5570 5569 5568 5563 5558 5554 5551 5547 5544 5539 5536 5532 5527 5522 5518 5514 5510 5505 5499 5491 5483 5477 5470 5463 5457 5450 5443 5439 5430 5421 5411 5397 5385 5375 5365 5357 5348
5556 5553 5551 5548 5544 5539 5534 5531 5528 5524 5521 5517 5512 5508 5503 5497 5491 5486 5481 5475 5470 5463 5453 5445 5438 5431 5425 5416 5408 5404 5392 5384 5377 5363 5350 5343 5335 5327
5536 5534 5531 5527 5523 5518 5514 5511 5507 5504 5499 5494 5488 5483 5479 5475 5469 5463 5457 5452 5447 5440 5431 5421 5412 5405 5399 5389 5382 5372 5364 5355 5344 5337 5325 5321 5315 5308
5516 5514 5511 5505 5501 5498 5495 5493 5487 5483 5479 5474 5468 5464 5459 5453 5448 5441 5434 5428 5421 5414 5405 5395 5385 5378 5373 5369 5349 5340 5334 5324 5317 5309 5299 5297 5297 5290
5497 5494 5489 5486 5484 5480 5476 5472 5468 5464 5458 5454 5450 5443 5437 5431 5424 5416 5408 5402 5394 5386 5378 5367 5356 5346 5342 5342 5335 5307 5297 5291 5290 5287 5278 5275 5277 5273
5477 5474 5471 5467 5465 5461 5457 5452 5448 5443 5439 5433 5428 5422 5416 5408 5399 5392 5383 5374 5367 5357 5349 5339 5327 5315 5305 5301 5301 5292 5270 5263 5261 5263 5259 5257 5258 5258
5459 5455 5452 5448 5445 5440 5436 5431 5427 5423 5417 5410 5403 5396 5390 5382 5374 5364 5356 5347 5338 5328 5319 5307 5296 5282 5272 5263 5260 5258 5250 5238 5237 5240 5240 5241 5243 5246
5440 5436 5431 5427 5423 5418 5413 5408 5403 5398 5393 5385 5379 5372 5364 5354 5345 5337 5327 5317 5306 5295 5284 5274 5263 5253 5243 5234 5230 5226 5221 5215 5214 5219 5221 5225 5229 5235
5421 5419 5413 5408 5402 5397 5393 5387 5381 5375 5367 5359 5351 5343 5335 5326 5316 5307 5295 5284 5273 5263 5252 5244 5234 5224 5216 5208 5203 5198 5194 5193 5196 5203 5208 5213 5220 5229